一网星座-0210星 (ONEWEB-0210 )

导读

ONEWEB-0210是英国一网(OneWeb)公司打造的低轨互联网卫星,于2021年5月28日发射入轨,属于OneWeb全球卫星星座组网卫星。该卫星运行于1200公里近地轨道,采用Ku波段提供通信服务,单星可覆盖千公里级区域,为全球尤其是偏远地区提供宽带互联网接入服务,助力OneWeb完成全球卫星互联网星座的初期部署,目前OneWeb已建成全球第二大低轨卫星通信星座。

基本信息
目录编号:
48787
目录名称:
ONEWEB-0210
国际标识:
2021-045W
轨道中心:
EARTH
卫星名称:
一网星座-0210星
卫星全名:
一网星座-0210星 (ONEWEB-0210 )
卫星状态:
在轨 (已飞行1841 天)
发射日期:
2021-05-28 UTC
国别 :
英国 (GB)
星等 :
--
轨道信息
数据来源 国际轨道数据 AOE轨道数据
星历时间 2026-06-12T14:49:31+0800
14小时前
查看轨道信息
2026-06-11T04:00:00+0800
2天前
查看轨道信息
半长轴 7579.9km 7579.882km
偏心率 0.0001205 0.0000974
轨道倾角 87.901° 87.901°
近地点辐角 82.511° 48.992°
升交点赤经 260.161° 260.450°
平近点角 277.616° 282.927°
近地点 1200.849km 1201.006km
远地点 1202.677km 1202.484km
周期 109.460分钟 109.459分钟
每日圈数 13.155506 13.155554
详细信息
平衡模式:
三轴稳定
覆盖范围:
全球
运营商:
一网卫星公司
运营商所在国:
英国
制造商(研发单位):
一网卫星公司
制造商所在国:
英国
使用方式:
暂无
卫星简介
OneWeb卫星网络由648颗重约125公斤的微型卫星组成,运行在1200公里的轨道上。 每颗卫星都能够提供至少每秒8千兆位的吞吐量,以使用其高吞吐量的Ku频段有效载荷为家庭和移动平台提供互联网接入。该卫星仍在工作。
2D轨道图
3D轨道图
轨道高度分析图
轨道倾角分析图
轨道综合分析图
查看轨道综合分析图